Kazan, Russia

12:46 PM MSK on December 11, 2019 (GMT +0300)
Kazan

Weather History for UWKD - October, 2019

Change the Weather History Date:

Saturday, October 12, 2019

  Actual Average (WUND) Record (WUND)
Temperature  
Mean Temperature 45 °F -  
Max Temperature 53 °F - - (-1)
Min Temperature 37 °F - - (-1)
Degree Days  
Heating Degree Days 20    
Moisture  
Dew Point 42 °F    
Average Humidity 80    
Maximum Humidity 100    
Minimum Humidity 65    
Precipitation  
Precipitation 0.00 in - - ()
Sea Level Pressure  
Sea Level Pressure 29.96 in    
Wind  
Wind Speed 5 mph ()    
Max Wind Speed 11 mph    
Max Gust Speed -    
Visibility 6.1 miles    
Events      
Averages and records for this station are not official NWS values.
T = Trace of Precipitation, MM = Missing Value Source: Averaged Metar Reports

Daily Weather History Graph

Daily Weather History Graph

Search for Another Location

Airport or City:

Astronomy

Oct. 12, 2019 Rise Set
Actual Time 6:06 AM MSK 4:51 PM MSK
Civil Twilight 5:29 AM MSK 5:28 PM MSK
Nautical Twilight 4:46 AM MSK 6:10 PM MSK
Astronomical Twilight 4:03 AM MSK 6:53 PM MSK
Moon 5:01 PM MSK (10/12) 3:51 AM MSK (10/12)
Length of Visible Light 11h 59m
Length of Day
10h 45m
Waxing Gibbous, 98% of the Moon is Illuminated
Oct 12
Waxing Gibbous
Oct 14
Full
Oct 21
Last Quarter
Oct 28
New
Nov 4
First Quarter

Hourly Weather History & Observations

Time (MSK) Temp. Windchill Dew Point Humidity Pressure Visibility Wind Dir Wind Speed Gust Speed Precip Events Conditions
12:00 AM 46 °F - 39 °F 67% 29.94 in 6 mi West 2.2 mph - -   Mostly Cloudy
12:00 AM 44.6 °F 42.3 °F 37.4 °F 76% 29.92 in 6.2 mi West 4.5 mph - N/A   Scattered Clouds
12:30 AM 44.6 °F 42.3 °F 37.4 °F 76% 29.92 in 6.2 mi WSW 4.5 mph - N/A   Scattered Clouds
1:00 AM 44.6 °F 42.3 °F 37.4 °F 76% 29.92 in 6.2 mi West 4.5 mph - N/A   Scattered Clouds
1:30 AM 44.6 °F 42.3 °F 39.2 °F 81% 29.92 in 6.2 mi WSW 4.5 mph - N/A   Scattered Clouds
3:00 AM 45 °F - 39 °F 72% 29.97 in 6 mi SSE 2.2 mph - -   Overcast
3:30 AM 44.6 °F 42.3 °F 39.2 °F 81% 29.95 in 6.2 mi SW 4.5 mph - N/A   Scattered Clouds
4:00 AM 42.8 °F - 39.2 °F 87% 29.95 in 6.2 mi West 2.2 mph - N/A   Mostly Cloudy
4:30 AM 42.8 °F 40.2 °F 39.2 °F 87% 29.95 in - WSW 4.5 mph - N/A   Clear
5:30 AM 37.4 °F - 37.4 °F 100% 29.98 in - WSW 2.2 mph - N/A   Clear
6:00 AM 41 °F - 39 °F 91% 30.00 in 6 mi SSE 2.2 mph - -  
7:00 AM 42.8 °F 40.2 °F 41.0 °F 93% 29.98 in 6.2 mi SSE 4.5 mph - N/A   Mist
7:30 AM 42.8 °F 38.7 °F 41.0 °F 93% 29.98 in 5.6 mi South 6.7 mph - N/A   Unknown
8:30 AM 46.4 °F 43.0 °F 42.8 °F 87% 29.98 in - South 6.7 mph - N/A   Clear
9:00 AM 46 °F - 42 °F 82% 30.01 in 6 mi South 2.2 mph - -   Overcast
9:00 AM 48.2 °F - 42.8 °F 82% 29.98 in - South 4.5 mph - N/A   Clear
9:30 AM 48.2 °F - 44.6 °F 87% 29.98 in - SSW 4.5 mph - N/A   Clear
10:00 AM 50.0 °F - 44.6 °F 82% 29.98 in - South 6.7 mph - N/A   Clear
11:00 AM 51.8 °F - 44.6 °F 76% 29.98 in 6.2 mi South 6.7 mph - N/A   Scattered Clouds
11:30 AM 53.6 °F - 42.8 °F 67% 29.98 in 6.2 mi South 11.2 mph - N/A   Scattered Clouds
12:00 PM 53 °F - 45 °F 65% 30.00 in 6 mi South 2.2 mph - -   Overcast
12:00 PM 53.6 °F - 44.6 °F 72% 29.98 in 6.2 mi SSW 6.7 mph - N/A   Scattered Clouds
12:30 PM 53.6 °F - 42.8 °F 67% 29.98 in 6.2 mi SW 8.9 mph - N/A   Scattered Clouds
2:00 PM 53.6 °F - 42.8 °F 67% 29.98 in 6.2 mi SSW 6.7 mph - N/A   Scattered Clouds
3:00 PM 53.6 °F - 42.8 °F 67% 29.98 in - SW 6.7 mph - N/A   Clear
3:30 PM 53.6 °F - 42.8 °F 67% 29.98 in - SW 6.7 mph - N/A   Clear
4:00 PM 51.8 °F - 42.8 °F 71% 29.98 in - SSW 6.7 mph - N/A   Clear
5:00 PM 50.0 °F - 44.6 °F 82% 29.98 in 6.2 mi South 6.7 mph - N/A   Scattered Clouds
6:00 PM 50 °F - 45 °F 76% 30.00 in 6 mi Calm Calm - -  
6:30 PM 48.2 °F - 42.8 °F 82% 29.98 in 6.2 mi South 8.9 mph - N/A   Scattered Clouds
7:00 PM 48.2 °F - 42.8 °F 82% 29.95 in 6.2 mi South 6.7 mph - N/A   Scattered Clouds
8:30 PM 46.4 °F 42.0 °F 42.8 °F 87% 29.95 in - South 8.9 mph - N/A   Clear
9:00 PM 47 °F - 43 °F 81% 29.95 in 6 mi SSE 4.5 mph - -  
9:30 PM 44.6 °F 39.8 °F 41.0 °F 87% 29.92 in - South 8.9 mph - N/A   Clear
10:00 PM 42.8 °F 37.6 °F 41.0 °F 93% 29.92 in - South 8.9 mph - N/A   Clear
10:30 PM 44.6 °F 38.9 °F 41.0 °F 87% 29.89 in 6.2 mi South 11.2 mph - N/A   Scattered Clouds
11:00 PM 44.6 °F 38.9 °F 41.0 °F 87% 29.89 in - South 11.2 mph - N/A   Clear
11:30 PM 44.6 °F 39.8 °F 41.0 °F 87% 29.89 in - SSE 8.9 mph - N/A   Clear